Regional Weather Roundup
Issued by NWS Upton, NY

Current Version | Previous Version | Graphics & Text | Print | Product List | Glossary Off
Versions: 1 2 3 4 5 6 7 8 9 10 11 12 13 14 15 16 17 18 19 20 21 22 23 24 25 26 27

000
ASUS41 KOKX 130708
RWROKX

REGIONAL WEATHER ROUNDUP
NATIONAL WEATHER SERVICE NEW YORK NY
200 AM EST WED DEC 13 2017

NOTE: "FAIR" INDICATES FEW OR NO CLOUDS BELOW 12,000 FEET WITH NO
SIGNIFICANT WEATHER AND/OR OBSTRUCTIONS TO VISIBILITY.

NYZ071-072-176-178-NJZ106-104-130800-
NEW YORK CITY METRO AREA

CITY           SKY/WX    TMP DP  RH WIND       PRES   REMARKS
Central Park   PTCLDY    25   1  35 VRB7G25   29.53R WCI  17
Bronx Bot Gard   N/A     27   3  36 W20       29.50F WCI  13
Bronx Lehman C   N/A     27   5  39 W16G30      N/A  WCI  14
LaGuardia APRT PTCLDY    27   6  41 NW29G35   29.51R WCI  11
Queens College   N/A     27   1  33 NW18G30     N/A  WCI  13
Kennedy INTL   MOCLDY    26   6  42 NW23G31   29.52R WCI  11
Breezy Point     N/A    N/A N/A N/A NW21G33     N/A
Brooklyn Coll    N/A     27   5  39 NW20        N/A  WCI  13
Staten Island    N/A     27   5  39 NW17G31     N/A  WCI  14
Newark/Liberty PTCLDY    24   1  36 W18G28    29.53R WCI  10
Teterboro      PTCLDY    24   3  40 NW18G31   29.52R WCI  10
$$

NYZ177-179-078>081-130800-
LONG ISLAND NEW YORK

CITY           SKY/WX    TMP DP  RH WIND       PRES   REMARKS
Jones Beach      N/A    N/A N/A N/A NW26G33     N/A
Wantagh          N/A     28   9  43 NW17        N/A  WCI  16
Matinecock PT    N/A    N/A N/A N/A W37G45      N/A
Farmingdale    PTCLDY    26   6  42 NW16G25   29.48R WCI  14
MacArthur/ISP  CLOUDY    27  10  49 W21G32    29.44R WCI  13
Shirley        CLOUDY    29  15  56 W14G30    29.43R WCI  18
Mt Sinai Harb    N/A    N/A N/A N/A W16G24      N/A
Westhampton    CLOUDY    30  16  56 W14G31    29.42R WCI  19
East Hampton   CLOUDY    32  21  64 NW12G20   29.38R WCI  23
Southold         N/A     32  23  69 NW16        N/A  WCI  21
Montauk          N/A     34  21  59 NW14G29   29.37R WCI  25
$$

NYZ052-065-067-130800-
HUDSON VALLEY

CITY           SKY/WX    TMP DP  RH WIND       PRES   REMARKS
White Plains   PTCLDY    22   7  52 NW20G30   29.46R WCI   7
Larchmont Harb   N/A    N/A N/A N/A W22G29      N/A
Croton On Huds   N/A    N/A N/A N/A NW18        N/A
Somers           N/A     21   9  58 NW6         N/A  WCI  14
Brewster         N/A     23   7  50 W13         N/A  WCI  11
Newburgh       PTCLDY    19  10  68 W12G23    29.48  WCI   7
Montgomery     PTCLDY    20   4  50 W14G23    29.48R WCI   7
Otisville        N/A     19   9  63 W9          N/A  WCI   9
Warwick          N/A     21   5  49 W15G26      N/A  WCI   8
Suffern          N/A     21   7  53 W9          N/A  WCI  11
Poughkeepsie   CLOUDY    22   5  48 W14G23    29.48R WCI   9
Albany         CLOUDY    19   5  54 W16G28    29.46R WCI   4
$$

NJZ001-105-106-008-010-013-015-019>022-104-130800-
NEW JERSEY

CITY           SKY/WX    TMP DP  RH WIND       PRES   REMARKS
Newark/Liberty PTCLDY    24   1  36 W18G28    29.53R WCI  10
Teterboro      PTCLDY    24   3  40 NW18G31   29.52R WCI  10
Caldwell       PTCLDY    22   2  42 NW14G22   29.54R WCI   9
Somerville     CLEAR     22   2  42 NW17G29   29.56R WCI   8
Linden         FAIR      24   0  35 NW21G29   29.55R WCI  10
Perth Amboy      N/A    N/A N/A N/A W24G32      N/A
Sussex         PTCLDY    20   3  48 W8        29.52R WCI  10
Andover        NOT AVBL
Trenton        CLEAR     21   3  45 W10       29.59R WCI  10
Millville      CLEAR     22   2  42 NW17G25   29.65S WCI   8
Atlantic City  CLEAR     23   2  40 W18G32    29.62R WCI   9
Wrightstown    CLEAR     21   2  43 NW16G26   29.57R WCI   7
Toms River     MOCLDY    22   4  46 W18G32    29.58R WCI   7
Belmar         CLOUDY    23   5  46 W18G35    29.55R WCI   9
$$

PAZ047>061-062-071-130800-
EASTERN PENNSYLVANIA

CITY           SKY/WX    TMP DP  RH WIND       PRES   REMARKS
Philadelphia   CLEAR     22   0  38 W16G23    29.66R WCI   8
Allentown      PTCLDY    19   3  49 W14       29.60R WCI   6
Scranton       CLOUDY    17   3  54 W12       29.53R WCI   4
$$

CTZ002-004>006-009-010-012-RIZ004-006-007-MAZ004-011-015-130800-
SOUTHERN NEW ENGLAND
 IN CT

CITY           SKY/WX    TMP DP  RH WIND       PRES   REMARKS
Bradley INTL   CLOUDY    23  10  57 NW15      29.39R WCI  10
Hartford       MOCLDY    26  10  50 NW15G23   29.41R WCI  14
Danbury        CLOUDY    23   7  50 W12G25    29.45R WCI  12
Wtrbury/Oxford FLURRIES  23  14  68 W12G23    29.39R WCI  12
Norwalk Harbor   N/A    N/A N/A N/A W24G31      N/A
Bridgeport     CLOUDY    28  11  48 W15G29    29.43R WCI  16
Meriden        CLOUDY    27  11  51 NW15G23   29.41R WCI  15
New Haven      CLOUDY    30  17  58 NW10      29.41R WCI  21
Chester        PTSUNNY   27  12  54 NW8G22    29.37R WCI  18
Groton         CLOUDY    30  18  60 NW14G22   29.37R WCI  19
Wilimantic     MOCLDY    27  14  58 NW8G26    29.37R WCI  19

 IN RI

CITY           SKY/WX    TMP DP  RH WIND       PRES   REMARKS
Providence     CLOUDY    30  22  72 NW15      29.32S WCI  19
Block Island   MOCLDY    31  22  69 NW15G29   29.34S WCI  20
Westerly       CLOUDY    31  18  58 NW12G22   29.36R WCI  22
 IN MA

CITY           SKY/WX    TMP DP  RH WIND       PRES   REMARKS
Boston         CLOUDY    33  26  75 W18G31    29.24R WCI  22
Worcester      CLOUDY    22  12  65 W16G32    29.25R WCI   8
Westfield      CLOUDY    22   9  57 NW12G25   29.37R WCI  10
Provincetown   CLOUDY    37  32  82 W18       29.22R WCI  27
Nantucket      MOCLDY    38  35  89 NW14      29.24F WCI  30
$$

ANZ330-335-338-340-345-350-353-355-130800-
COASTAL MARINE OBSERVATIONS


STATION/POSITION TIME  SKY/WX   TEMP    WIND        PRES    VSBY  WAVE
                                AIR SEA DIR/SP/G                  HT/PER
                 (UTC)          (F)     (DEG/KT/KT) (MB)    (MI)  (FT/S)
NY HARB ENTRANCE 0550            33 52  310/ 23/ 29  997.1          5/ 5
20 S FIRE ISLAND 0550            35 52  320/ 23/ 29  996.4          6/ 6
GREAT SOUTH BAY  0600            32 45  300/ 19/ 23   N/A
HUDSON CANYON    0550            39 56  300/ 27/ 33  995.1         10/ 8
KINGS POINT      0630            28 45   10/ 22/ 28  999.3
EXECUTION ROCKS  0645            29     300/ 19/ 29   N/A
WESTERN LI SOUND NOT AVBL
CENTRAL LI SOUND 0615            33     310/ 19/ 23   N/A           3
ROBBINS REEF     0630            26     300/ 24/ 32  999.7
$$


>>>>>>>>>>>>>>>>>>>>>>>>>>>> KEY <<<<<<<<<<<<<<<<<<<<<<<<<<<
>                                                          <
>     SKY/WX - Sky Condition/Present Weather               <
>     TMP    - Temperature in Fahrenheit                   <
>     DP     - Dew Point in Fahrenheit                     <
>     RH     - Relative Humidity in Percent                <
>     WIND   - Direction (from) and Speed in MPH           <
>     PRES   - Mean Sea Level Pressure (inches of Hg)      <
>     WCI    - Wind Chill Index                            <
>     VSB    - VISIBILITY IN MILES                         <
>     HX     - HEAT INDEX                                  <
>     TC     - TEMPERATURE IN CELSIUS                      <
>     VRB    - VARIABLE WIND DIRECTION                     <
>                                                          <
>>>>>>>>>>>>>>>>>>>>>>>>>>>> KEY <<<<<<<<<<<<<<<<<<<<<<<<<<<




USA.gov is the U.S. government's official web portal to all federal, state and local government web resources and services.